DW8306 Weather Reports


time (UTC)temp
F
wind
direction
speed
knots
gust
knots
rain 1hr
in
rain 24hr
in
rain mn
in
humidity
%
barometer
mb
20260903194548 92 234 0.0 0.9 0.00 0.00 0.00 64 1012.7
20260903193043 93 83 0.0 3.5 0.00 0.00 0.00 63 1012.6
20260903191539 93 308 0.0 4.3 0.00 0.00 0.00 62 1013.0
20260903190036 94 231 0.9 5.2 0.00 0.00 0.00 59 1013.1
20260903184536 92 149 0.9 3.5 0.00 0.00 0.00 62 1013.3
20260903183039 93 172 0.0 3.5 0.00 0.00 0.00 63 1013.3
20260903181531 92 79 0.0 5.2 0.00 0.00 0.00 63 1013.6
20260903180030 92 93 0.0 5.2 0.00 0.00 0.00 67 1013.8
20260903174529 90 110 1.7 5.2 0.00 0.09 0.00 67 1014.1
20260903173028 91 177 0.9 5.2 0.00 0.09 0.00 66 1014.3
20260903171529 91 147 0.9 5.2 0.00 0.09 0.00 67 1014.6
20260903170026 89 66 0.0 4.3 0.00 0.09 0.00 71 1014.7
20260903164523 88 62 0.9 4.3 0.00 0.09 0.00 71 1014.9
20260903163022 88 87 0.0 0.9 0.00 0.09 0.00 73 1015.0
20260903161521 89 87 0.0 4.3 0.00 0.09 0.00 70 1015.0
20260903160029 89 108 0.0 1.7 0.00 0.09 0.00 71 1015.0
20260903154512 87 255 0.9 1.7 0.00 0.09 0.00 77 1015.0
20260903153011 87 138 0.0 1.7 0.00 0.09 0.00 78 1014.9
20260903151507 85 217 0.0 1.7 0.00 0.09 0.00 81 1014.8
20260903150006 85 66 0.0 1.7 0.00 0.09 0.00 82 1014.8
20260903144514 84 66 0.0 0.9 0.00 0.09 0.00 84 1014.9
20260903143100 83 66 0.0 3.5 0.00 0.09 0.00 86 1014.9
20260903141557 82 58 0.0 0.9 0.00 0.09 0.00 89 1015.0
20260903140051 80 58 0.0 0.0 0.00 0.09 0.00 92 1015.0
20260903134549 79 58 0.0 0.9 0.00 0.09 0.00 94 1015.1
20260903133056 78 58 0.0 0.9 0.00 0.09 0.00 94 1015.0
20260903131544 77 87 0.9 1.7 0.00 0.09 0.00 95 1015.0
20260903130045 77 51 0.0 0.0 0.00 0.09 0.00 95 1015.0
20260903124541 76 51 0.0 0.9 0.00 0.09 0.00 95 1015.0
20260903123040 76 51 0.0 0.0 0.00 0.09 0.00 95 1015.0
20260903121539 75 51 0.0 0.0 0.00 0.09 0.00 95 1014.7
20260903120052 75 51 0.0 0.0 0.00 0.09 0.00 94 1014.5
20260903114534 75 51 0.0 0.0 0.00 0.09 0.00 94 1014.3
20260903113101 75 51 0.0 0.0 0.00 0.09 0.00 94 1014.3
20260903111532 75 51 0.0 0.0 0.00 0.09 0.00 94 1014.2
20260903110032 75 51 0.0 0.0 0.00 0.09 0.00 94 1014.2
20260903104550 75 50 0.0 0.0 0.00 0.09 0.00 94 1014.1
20260903103034 75 51 0.0 0.0 0.00 0.09 0.00 94 1013.9
20260903101530 75 51 0.0 0.0 0.00 0.09 0.00 94 1014.0
20260903100035 75 51 0.0 0.0 0.00 0.09 0.00 94 1013.9
20260903094544 75 50 0.0 0.0 0.00 0.09 0.00 94 1013.7
20260903093032 75 51 0.0 0.9 0.00 0.09 0.00 93 1013.8
20260903091538 76 51 0.0 0.9 0.00 0.09 0.00 93 1013.8
20260903090024 76 354 0.0 1.7 0.00 0.09 0.00 93 1013.8
20260903084522 76 354 0.0 0.0 0.00 0.09 0.00 92 1013.8
20260903083021 76 354 0.0 0.0 0.00 0.09 0.00 93 1013.7
20260903081518 76 354 0.0 0.0 0.00 0.09 0.00 92 1013.8
20260903080018 76 354 0.0 0.0 0.00 0.09 0.00 92 1013.7
20260903074516 76 354 0.0 0.0 0.00 0.09 0.00 92 1013.7
20260903073028 77 354 0.0 0.0 0.00 0.09 0.00 92 1013.6
20260903071523 77 354 0.0 0.0 0.00 0.09 0.00 92 1013.5
20260903070014 77 354 0.0 0.9 0.00 0.09 0.00 92 1013.5
20260903064511 77 354 0.0 0.9 0.00 0.09 0.00 92 1013.5
20260903063012 76 354 0.0 0.0 0.00 0.09 0.00 92 1013.5
20260903061509 76 354 0.0 1.7 0.00 0.09 0.00 91 1013.4
20260903060109 76 79 0.0 0.0 0.00 0.09 0.00 90 1013.5
20260903054507 76 79 0.0 0.0 0.00 0.09 0.00 90 1013.5
20260903053009 76 79 0.0 0.0 0.00 0.09 0.00 90 1013.4
20260903051504 76 79 0.0 0.0 0.00 0.09 0.00 89 1013.5
20260903050002 76 79 0.0 0.0 0.00 0.09 0.09 89 1013.4
20260903044501 77 79 0.0 0.0 0.00 0.09 0.09 89 1013.4
20260903043004 77 79 0.0 0.0 0.00 0.09 0.09 89 1013.5
20260903041607 78 79 0.0 0.0 0.00 0.09 0.09 89 1013.7
20260903034600 78 79 0.0 0.0 0.00 0.09 0.09 88 1013.9
20260903033059 78 79 0.0 0.0 0.00 0.09 0.09 88 1014.1
20260903031602 79 79 0.0 0.0 0.00 0.09 0.09 88 1014.2
20260903030058 79 79 0.0 0.0 0.00 0.09 0.09 88 1014.1
20260903024604 80 79 0.0 0.0 0.00 0.09 0.09 88 1014.0
20260903023057 80 79 0.0 0.0 0.00 0.09 0.09 88 1013.7
20260903021556 80 79 0.0 0.0 0.00 0.09 0.09 87 1013.6
20260903020055 81 79 0.0 1.7 0.00 0.09 0.09 87 1013.3
20260903014556 81 36 0.0 0.9 0.00 0.09 0.09 86 1013.4
20260903013106 82 36 0.0 0.9 0.00 0.09 0.09 86 1013.2
20260903011553 82 35 0.0 0.0 0.00 0.09 0.09 85 1013.1
20260903010053 83 278 0.0 1.7 0.00 0.09 0.09 83 1013.2
20260903004550 83 226 0.0 1.7 0.00 0.09 0.09 82 1013.3
20260903003050 84 86 0.0 5.2 0.00 0.09 0.09 81 1013.3
20260903001550 85 88 0.0 5.2 0.00 0.09 0.09 79 1013.4
20260903000049 86 73 0.0 5.2 0.00 0.09 0.09 78 1013.4
20260902234606 86 100 0.0 4.3 0.00 0.09 0.09 78 1013.3
20260902233048 86 176 0.0 3.5 0.00 0.09 0.09 77 1013.4
20260902231549 87 243 0.9 3.5 0.00 0.09 0.09 76 1013.3
20260902230050 87 81 0.0 1.7 0.00 0.09 0.09 76 1013.2
20260902224606 87 174 0.0 0.9 0.00 0.09 0.09 75 1013.0
20260902223047 87 118 0.0 5.2 0.00 0.09 0.09 76 1013.0
20260902221545 87 103 1.7 5.2 0.00 0.09 0.09 74 1013.0
20260902220048 88 91 0.0 6.1 0.00 0.09 0.09 74 1013.3
20260902214540 89 56 1.7 5.2 0.00 0.09 0.09 69 1013.4
20260902213041 90 188 0.9 6.1 0.00 0.09 0.09 69 1013.3
20260902211537 90 82 1.7 6.1 0.00 0.09 0.09 67 1013.3
20260902210032 90 93 2.6 7.0 0.00 0.09 0.09 68 1013.5
20260902204530 88 75 2.6 7.8 0.00 0.09 0.09 70 1014.1
20260902203029 88 83 0.9 6.1 0.00 0.09 0.09 69 1014.5
20260902201526 88 63 0.0 1.7 0.00 0.09 0.09 70 1014.6
20260902200046 89 280 0.0 1.7 0.00 0.09 0.09 69 1014.6